Date String (YYYY-MM-DD hh:mm:ss) UTC,Instrument flags,absolute air pressure of the measurement (hPa),sample flow rate (lpm),inlet stack bypass flow (lpm),air temperature of the measurement (°C),ambient temperature measured by the external sensor (°C),aerosol sample conditioner tube jacket temperature (°C),OPC LED temperature (°C),internal box temperature (°C),relative humidity of the measurement (%),span deviation,mass concentration of particles derived from Lorenz-Mie calculation of OPC scattering (μg/m³),mass concentration of particles derived from Lorenz-Mie calculation of OPC scattering (μg/m³),mass concentration of particles derived from Lorenz-Mie calculation of OPC scattering (μg/m³)
DateTimeUTC,F1_M11,P_M11,Q1_M11,Q2_M11,T1_M11,T2_M11,T3_M11,T4_M11,T5_M11,U1_M11,ZSPAN_M11,X0_M11,X2_M11,X1_M11
2023-07-03 10:00:00,SystemResetWarning,0831.9,5.00,000.00,029.9,028.6,000.0,038.4,031.4,21.0,0000.0,0010.49,0004.39,0004.03
2023-07-03 10:01:00,SystemResetWarning,0831.8,4.99,000.00,029.9,028.2,000.0,038.4,031.4,20.8,0000.0,0010.23,0004.41,0004.04
2023-07-03 10:02:00,SystemResetWarning,0831.8,5.00,000.00,029.9,026.1,000.0,038.3,031.2,20.7,0000.0,0009.89,0004.43,0004.05
2023-07-03 10:03:00,SystemResetWarning,0832.1,5.00,000.00,029.8,025.1,000.0,038.1,031.0,21.1,0000.0,0009.86,0004.42,0004.05
2023-07-03 10:04:00,SystemResetWarning,0832.0,5.01,000.00,029.6,025.1,000.0,038.1,030.6,21.3,0000.0,0009.93,0004.43,0004.05
2023-07-03 10:05:00,SystemResetWarning,0832.3,5.01,000.00,029.5,025.5,000.0,038.1,030.6,21.5,0000.0,0009.73,0004.45,0004.06
2023-07-03 10:06:00,SystemResetWarning,0831.8,5.00,000.00,029.4,025.9,000.0,038.1,030.6,21.7,0000.0,0009.51,0004.48,0004.06
2023-07-03 10:07:00,SystemResetWarning,0831.8,4.98,000.00,029.4,026.3,000.0,038.1,030.7,21.8,0000.0,0009.70,0004.50,0004.07
2023-07-03 10:08:00,SystemResetWarning,0831.9,5.00,000.00,029.4,026.7,000.0,038.1,030.7,21.8,0000.0,0009.09,0004.50,0004.08
2023-07-03 10:09:00,SystemResetWarning,0831.9,4.99,000.00,029.4,026.9,000.0,038.1,030.7,21.8,0000.0,0009.11,0004.53,0004.07
2023-07-03 10:10:00,SystemResetWarning,0831.9,5.01,000.00,029.4,027.2,000.0,038.1,030.8,21.6,0000.0,0009.05,0004.55,0004.08
2023-07-03 10:11:00,SystemResetWarning,0831.9,5.00,000.00,029.4,027.4,000.0,038.0,030.8,21.4,0000.0,0009.02,0004.55,0004.09
2023-07-03 10:12:00,SystemResetWarning,0831.8,5.00,000.00,029.4,027.5,000.0,038.0,030.8,21.3,0000.0,0009.05,0004.57,0004.08
2023-07-03 10:13:00,SystemResetWarning,0831.8,5.00,000.00,029.4,027.6,000.0,038.0,030.9,21.2,0000.0,0009.12,0004.58,0004.08
2023-07-03 10:14:00,SystemResetWarning,0831.8,5.00,000.00,029.4,027.7,000.0,038.0,030.9,21.3,0000.0,0009.10,0004.58,0004.07
2023-07-03 10:15:00,SystemResetWarning,0831.9,5.00,000.00,029.4,027.8,000.0,038.0,030.9,21.5,0000.0,0008.76,0004.56,0004.07
2023-07-03 10:16:00,SystemResetWarning,0831.9,4.99,000.00,029.4,027.9,000.0,038.0,030.9,21.8,0000.0,0008.71,0004.55,0004.06
2023-07-03 10:17:00,SystemResetWarning,0831.9,5.00,000.00,029.4,028.0,000.0,038.0,031.0,21.5,0000.0,0008.52,0004.53,0004.06
2023-07-03 10:18:00,SystemResetWarning,0831.9,5.00,000.00,029.5,028.0,000.0,038.0,031.0,21.8,0000.0,0007.74,0004.54,0004.06
2023-07-03 10:19:00,SystemResetWarning,0831.9,5.00,000.00,029.5,028.1,000.0,038.0,031.0,22.5,0000.0,0007.71,0004.57,0004.06
2023-07-03 10:20:00,SystemResetWarning,0831.9,5.00,000.00,029.5,028.1,000.0,038.0,031.0,22.4,0000.0,0007.65,0004.57,0004.07
2023-07-03 10:21:00,SystemResetWarning,0831.9,5.00,000.00,029.5,028.1,000.0,038.1,031.1,22.3,0000.0,0007.72,0004.59,0004.07
2023-07-03 10:22:00,SystemResetWarning,0831.9,5.00,000.00,029.5,028.2,000.0,038.1,031.1,22.5,0000.0,0007.72,0004.57,0004.06
2023-07-03 10:23:00,SystemResetWarning,0831.9,5.01,000.00,029.5,028.2,000.0,038.1,031.1,22.5,0000.0,0007.92,0004.54,0004.06
2023-07-03 10:24:00,SystemResetWarning,0831.9,5.01,000.00,029.6,028.2,000.0,038.1,031.1,22.1,0000.0,0007.84,0004.54,0004.07
2023-07-03 10:25:00,SystemResetWarning,0831.9,5.00,000.00,029.6,028.2,000.0,038.1,031.1,21.9,0000.0,0007.80,0004.55,0004.08
2023-07-03 10:26:00,SystemResetWarning,0831.9,4.99,000.00,029.6,028.2,000.0,038.1,031.1,22.1,0000.0,0007.99,0004.60,0004.09
2023-07-03 10:27:00,SystemResetWarning,0831.9,4.99,000.00,029.6,028.3,000.0,038.1,031.1,22.2,0000.0,0008.04,0004.62,0004.10
2023-07-03 10:28:00,SystemResetWarning,0831.9,4.99,000.00,029.6,028.3,000.0,038.1,031.1,22.4,0000.0,0008.05,0004.63,0004.10
2023-07-03 10:29:00,SystemResetWarning,0831.9,5.00,000.00,029.6,028.3,000.0,038.1,031.1,22.3,0000.0,0007.97,0004.61,0004.10
2023-07-03 10:30:00,SystemResetWarning,0831.9,5.00,000.00,029.6,028.3,000.0,038.2,031.2,21.9,0000.0,0008.05,0004.59,0004.10
2023-07-03 10:31:00,SystemResetWarning,0831.9,5.00,000.00,029.6,028.4,000.0,038.2,031.2,22.0,0000.0,0008.15,0004.58,0004.09
2023-07-03 10:32:00,SystemResetWarning,0831.9,5.00,000.00,029.7,028.4,000.0,038.2,031.2,21.8,0000.0,0008.75,0004.53,0004.09
2023-07-03 10:33:00,SystemResetWarning,0831.9,5.00,000.00,029.7,028.4,000.0,038.2,031.2,21.6,0000.0,0008.80,0004.55,0004.09
2023-07-03 10:34:00,SystemResetWarning,0831.8,5.00,000.00,029.7,028.4,000.0,038.2,031.2,21.3,0000.0,0008.49,0004.54,0004.09
2023-07-03 10:35:00,SystemResetWarning,0831.8,5.01,000.00,029.7,028.4,000.0,038.2,031.2,20.9,0000.0,0008.51,0004.55,0004.08
2023-07-03 10:36:00,SystemResetWarning,0831.8,5.01,000.00,029.7,028.4,000.0,038.2,031.2,20.9,0000.0,0008.50,0004.52,0004.07
2023-07-03 10:37:00,SystemResetWarning,0831.8,5.00,000.00,029.7,028.4,000.0,038.2,031.2,20.9,0000.0,0008.34,0004.48,0004.07
2023-07-03 10:38:00,SystemResetWarning,0831.7,4.99,000.00,029.7,028.4,000.0,038.3,031.3,21.0,0000.0,0008.35,0004.46,0004.07
2023-07-03 10:39:00,SystemResetWarning,0831.9,5.00,000.00,029.7,028.4,000.0,038.3,031.3,21.7,0000.0,0008.43,0004.46,0004.06
2023-07-03 10:40:00,SystemResetWarning,0832.1,5.00,000.00,029.7,028.4,000.0,038.3,031.3,21.5,0000.0,0008.59,0004.49,0004.07
2023-07-03 10:41:00,SystemResetWarning,0832.0,5.01,000.00,029.8,028.4,000.0,038.3,031.3,21.0,0000.0,0008.56,0004.46,0004.05
2023-07-03 10:42:00,SystemResetWarning,0831.9,5.01,000.00,029.8,028.4,000.0,038.3,031.3,21.0,0000.0,0008.68,0004.45,0004.06
2023-07-03 10:43:00,SystemResetWarning,0832.0,4.99,000.00,029.8,028.5,000.0,038.3,031.3,20.9,0000.0,0008.15,0004.45,0004.06
2023-07-03 10:44:00,SystemResetWarning,0831.8,4.99,000.00,029.8,028.5,000.0,038.3,031.3,20.8,0000.0,0008.06,0004.42,0004.05
2023-07-03 10:45:00,SystemResetWarning,0831.7,5.00,000.00,029.8,028.5,000.0,038.3,031.3,20.8,0000.0,0008.09,0004.43,0004.06
2023-07-03 10:46:00,SystemResetWarning,0831.8,5.01,000.00,029.8,028.5,000.0,038.4,031.3,20.8,0000.0,0008.22,0004.43,0004.07
2023-07-03 10:47:00,SystemResetWarning,0831.7,5.01,000.00,029.8,028.5,000.0,038.4,031.3,20.8,0000.0,0008.31,0004.44,0004.09
2023-07-03 10:48:00,SystemResetWarning,0831.8,5.01,000.00,029.8,028.5,000.0,038.4,031.3,20.9,0000.0,0008.39,0004.45,0004.09
2023-07-03 10:49:00,SystemResetWarning,0832.0,5.00,000.00,029.8,028.5,000.0,038.4,031.3,20.8,0000.0,0008.75,0004.47,0004.10
2023-07-03 10:50:00,SystemResetWarning,0832.0,5.00,000.00,029.8,028.5,000.0,038.4,031.4,20.9,0000.0,0009.08,0004.47,0004.09
2023-07-03 10:51:00,SystemResetWarning,0832.1,5.00,000.00,029.9,028.5,000.0,038.4,031.4,20.8,0000.0,0009.22,0004.45,0004.08
2023-07-03 10:52:00,SystemResetWarning,0832.1,4.99,000.00,029.9,028.5,000.0,038.4,031.4,21.0,0000.0,0009.44,0004.47,0004.10
2023-07-03 10:53:00,SystemResetWarning,0832.2,5.00,000.00,029.9,028.5,000.0,038.4,031.4,20.8,0000.0,0009.14,0004.46,0004.11
2023-07-03 10:54:00,SystemResetWarning,0831.9,5.01,000.00,029.9,028.6,000.0,038.4,031.4,20.6,0000.0,0008.92,0004.48,0004.11
2023-07-03 10:55:00,SystemResetWarning,0831.8,5.01,000.00,029.9,028.6,000.0,038.4,031.4,20.9,0000.0,0009.27,0004.52,0004.12
2023-07-03 10:56:00,SystemResetWarning,0831.7,4.99,000.00,029.9,028.6,000.0,038.4,031.4,20.7,0000.0,0009.58,0004.56,0004.12
2023-07-03 10:57:00,SystemResetWarning,0831.7,4.99,000.00,029.9,028.6,000.0,038.5,031.4,20.6,0000.0,0009.93,0004.56,0004.11
2023-07-03 10:58:00,SystemResetWarning,0831.7,4.99,000.00,029.9,028.6,000.0,038.5,031.4,20.5,0000.0,0010.11,0004.57,0004.10
2023-07-03 10:59:00,SystemResetWarning,0831.7,5.01,000.00,029.9,028.6,000.0,038.5,031.4,20.5,0000.0,0010.49,0004.59,0004.09
